Tracking 26935 objects as of 5-Feb-2023
HD Live streaming from Space Station
objects crossing your sky now

NSS 5 (INTELSAT 803)

Track NSS 5 (INTELSAT 803) now!
NSS 5 (INTELSAT 803) is classified as:


NORAD ID: 24957
Int'l Code: 1997-053A
Perigee: 36,113.0 km
Apogee: 36,135.4 km
Inclination: 7.9 °
Period: 1,453.0 minutes
Semi major axis: 42495 km
RCS: 25.1188 m2 (large)
Launch date: September 23, 1997
Source: Netherlands (NETH)
Launch site: FRENCH GUIANA (FRGUI)

38 C-band, 6 Ku-band; Pacific Ocean region; shared capacity with Intelset.
Your satellite tracking list
Your tracking list is empty




NASA's NSSDC Master Catalog

Two Line Element Set (TLE):
1 24957U 97053A   23035.24285581 -.00000020  00000-0  00000-0 0  9992
2 24957   7.8787  57.7084 0002630 201.8881 349.1376  0.99104534 92779
Source of the keplerian elements: AFSPC